"2016-06-22 00:00:00",1743771,2.23,210.5,4.667,0.21,29.31,113.059,32.76,33.74,11.03,0,111.8,12.93,33.63,172.5
"2016-06-22 00:00:30",1743772,1.861,215.3,11.62,0.222,29.19,113.0622,32.77,33.75,11,0,111.8,12.93,33.64,177.3
"2016-06-22 00:01:00",1743773,1.338,222.4,3.518,0.18,29.05,113.0644,32.78,33.74,11.02,0,111.8,12.93,33.64,184.4
"2016-06-22 00:01:30",1743774,1.34,222.2,4.044,0.111,29.06,113.0644,32.78,33.74,11.08,0,111.8,12.93,33.64,184.2
"2016-06-22 00:02:00",1743775,1.044,227.8,3.616,0.179,28.99,113.0639,32.78,33.73,11.1,0,111.8,12.93,33.64,189.8
"2016-06-22 00:02:30",1743776,1.264,232.3,4.021,0.17,28.94,113.0647,32.78,33.73,11.11,0,111.8,12.93,33.64,194.3
"2016-06-22 00:03:00",1743777,1.548,224.7,4.591,0.124,28.99,113.0642,32.78,33.74,11.09,0,111.8,12.93,33.64,186.7
"2016-06-22 00:03:30",1743778,1.479,218.6,7.709,0.21,29.03,113.0647,32.78,33.74,11.06,0,111.8,12.93,33.64,180.6
"2016-06-22 00:04:00",1743779,2.048,215.6,4.236,0.139,28.99,113.0658,32.78,33.74,11.09,0,111.8,12.92,33.65,177.6
"2016-06-22 00:04:30",1743780,2.102,211.3,4.755,0.16,29.07,113.0658,32.78,33.74,11.1,0,111.7,12.92,33.65,173.3
"2016-06-22 00:05:00",1743781,2.029,209.9,8.62,0.183,28.99,113.0658,32.78,33.75,11.06,0,111.8,12.92,33.65,171.9
"2016-06-22 00:05:30",1743782,2.091,198.3,2.591,0.201,29.03,113.0667,32.78,33.75,11.02,0,111.8,12.92,33.65,160.3
"2016-06-22 00:06:00",1743783,2.213,194,2.882,0.123,29,113.0726,32.8,33.77,10.95,0,111.8,12.92,33.67,156.0
"2016-06-22 00:06:30",1743784,2.282,193,1.806,0.094,29.02,113.0745,32.8,33.77,10.98,0,111.8,12.92,33.67,155.0
"2016-06-22 00:07:00",1743785,2.555,198.2,5.505,0.192,28.92,113.0745,32.8,33.79,10.96,0,111.8,12.92,33.67,160.2
"2016-06-22 00:07:30",1743786,2.772,200.9,3.829,0.077,28.94,113.0824,32.82,33.79,10.97,0,111.8,12.92,33.69,162.9
"2016-06-22 00:08:00",1743787,2.62,202,3.829,0.081,28.86,113.0925,32.85,33.8,10.93,0,111.8,12.92,33.72,164.0
"2016-06-22 00:08:30",1743788,2.674,201.8,3.335,0.21,28.85,113.0986,32.87,33.81,10.91,0,111.8,12.92,33.73,163.8
"2016-06-22 00:09:00",1743789,2.754,203.4,3.734,0.084,28.9,113.0997,32.87,33.82,10.99,0,111.8,12.92,33.74,165.4
"2016-06-22 00:09:30",1743790,3.015,208.1,2.787,0.13,29.02,113.1031,32.88,33.84,11.01,0,111.8,12.92,33.74,170.1
"2016-06-22 00:10:00",1743791,2.964,214.2,3.018,0.164,29.19,113.1081,32.89,33.84,11.05,0,111.8,12.93,33.76,176.2
"2016-06-22 00:10:30",1743792,2.879,220.4,1.832,0.121,29.26,113.1087,32.89,33.86,11.02,0,111.8,12.92,33.76,182.4
"2016-06-22 00:11:00",1743793,2.363,209.8,4.13,0.208,29.19,113.1154,32.91,33.87,10.96,0,111.8,12.93,33.78,171.8
"2016-06-22 00:11:30",1743794,2.343,213.6,4.881,0.113,29.22,113.1216,32.93,33.88,11,0,111.8,12.93,33.79,175.6
"2016-06-22 00:12:00",1743795,2.314,207.9,9.68,0.196,29.36,113.1275,32.94,33.9,11.02,0,111.8,12.93,33.81,169.9
"2016-06-22 00:12:30",1743796,1.784,192.2,7.035,0.273,29.24,113.1272,32.94,33.91,11.02,0,111.8,12.93,33.81,154.2
"2016-06-22 00:13:00",1743797,1.604,199.3,4.849,0.142,29.34,113.1241,32.93,33.91,11.05,0,111.8,12.93,33.80,161.3
"2016-06-22 00:13:30",1743798,1.969,205.6,4.359,0.225,29.39,113.123,32.93,33.92,11.12,0,111.8,12.93,33.80,167.6
"2016-06-22 00:14:00",1743799,2.094,199.9,4.142,0.332,29.19,113.1233,32.93,33.91,11.11,0,111.8,12.93,33.80,161.9
"2016-06-22 00:14:30",1743800,1.727,206.5,5.524,0.272,29.34,113.1265,32.94,33.91,11.15,0,111.8,12.93,33.80,168.5
"2016-06-22 00:15:00",1743801,1.277,198.5,15.83,0.221,29.36,113.128,32.94,33.91,11.15,0,111.8,12.93,33.81,160.5
"2016-06-22 00:15:30",1743802,1.456,186.1,5.394,0.156,29.52,113.1259,32.94,33.92,11.02,0,111.8,12.93,33.80,148.1
"2016-06-22 00:16:00",1743803,1.421,179.1,6.623,0.224,29.45,113.1229,32.93,33.91,11.03,0,111.8,12.93,33.80,141.1
"2016-06-22 00:16:30",1743804,0.999,192.1,9.63,0.171,29.57,113.1183,32.92,33.91,11.07,0,111.8,12.93,33.78,154.1
"2016-06-22 00:17:00",1743805,1.004,194.8,10.72,0.186,29.14,113.119,32.92,33.91,11.18,0,111.8,12.93,33.78,156.8
"2016-06-22 00:17:30",1743806,1.041,200.6,8.73,0.211,29.13,113.1184,32.92,33.91,11.23,0,111.8,12.93,33.78,162.6
"2016-06-22 00:18:00",1743807,0.575,149.3,19.74,0.248,29.27,113.1065,32.89,33.89,11.29,0,111.8,12.93,33.75,111.3
"2016-06-22 00:18:30",1743808,0.849,119.8,9.17,0.147,29.21,113.097,32.86,33.87,11.34,0,111.8,12.93,33.73,81.8
"2016-06-22 00:19:00",1743809,0.858,104.1,13.29,0.223,29.24,113.0732,32.8,33.85,11.5,0,111.8,12.93,33.67,66.1
"2016-06-22 00:19:30",1743810,0.704,78.19,13.99,0.333,29.3,113.0561,32.76,33.81,11.47,0,111.8,12.93,33.62,40.2
"2016-06-22 00:20:00",1743811,1.102,102.4,20.23,0.52,29.4,113.034,32.7,33.76,11.62,0,111.8,12.93,33.57,64.4
"2016-06-22 00:20:30",1743812,2.563,81.6,16.15,0.354,29.13,113.0109,32.64,33.72,11.89,0,111.8,12.93,33.51,43.6
"2016-06-22 00:21:00",1743813,2.843,60.54,10.54,0.426,28.56,112.999,32.61,33.67,12.1,0,111.8,12.93,33.47,22.5
"2016-06-22 00:21:30",1743814,4.488,50.02,7.152,0.659,28.87,112.9939,32.6,33.65,11.89,0,111.8,12.93,33.46,12.0
"2016-06-22 00:22:00",1743815,5.044,61.38,6.359,0.392,29.14,112.9945,32.6,33.61,11.73,0,111.8,12.93,33.46,23.4
"2016-06-22 00:22:30",1743816,5.115,59.93,6.461,0.461,28.89,112.9923,32.59,33.59,11.74,0,111.8,12.93,33.46,21.9
"2016-06-22 00:23:00",1743817,4.946,74.59,3.287,0.548,28.91,112.9867,32.58,33.59,11.7,0,111.8,12.93,33.44,36.6
"2016-06-22 00:23:30",1743818,5.51,72.6,5.18,0.183,28.58,112.9846,32.57,33.59,11.72,0,111.8,12.93,33.44,34.6
"2016-06-22 00:24:00",1743819,5.79,72.61,4.171,0.783,28.77,112.9809,32.56,33.55,11.78,0,111.8,12.92,33.43,34.6
"2016-06-22 00:24:30",1743820,6.543,75.4,9.55,0.457,28.77,112.9753,32.55,33.56,11.97,0,111.8,12.92,33.41,37.4
"2016-06-22 00:25:00",1743821,6.541,79.96,5.504,0.726,28.69,112.9748,32.55,33.56,12.1,0,111.8,12.92,33.41,42.0
"2016-06-22 00:25:30",1743822,6.083,79.62,3.766,0.67,28.83,112.9678,32.53,33.53,12.12,0,111.8,12.92,33.39,41.6
"2016-06-22 00:26:00",1743823,5.917,79.84,3.777,0.399,28.72,112.9501,32.48,33.53,11.94,0,111.8,12.92,33.35,41.8
"2016-06-22 00:26:30",1743824,6.072,76.36,1.264,0.158,28.48,112.9426,32.46,33.53,11.88,0,111.8,12.93,33.33,38.4
"2016-06-22 00:27:00",1743825,4.829,88.2,4.502,0.55,28.76,112.9412,32.46,33.52,11.68,0,111.8,12.93,33.33,50.2
"2016-06-22 00:27:30",1743826,5.219,92.3,3.847,0.272,28.58,112.9314,32.44,33.48,11.69,0,111.8,12.93,33.30,54.3
"2016-06-22 00:28:00",1743827,4.237,107.2,8.27,0.724,28.57,112.9157,32.39,33.47,11.76,0,111.7,12.93,33.26,69.2
"2016-06-22 00:28:30",1743828,1.926,119,8.12,0.361,28.55,112.9126,32.39,33.45,12,0,111.7,12.93,33.25,81.0
"2016-06-22 00:29:00",1743829,2.86,122.6,5.34,0.405,28.36,112.9076,32.37,33.47,12.04,0,111.7,12.93,33.24,84.6
"2016-06-22 00:29:30",1743830,3.932,96.8,9.26,0.707,28.46,112.9076,32.37,33.44,11.89,0,111.7,12.93,33.24,58.8
"2016-06-22 00:30:00",1743831,4.387,91.2,4.309,0.386,28.5,112.9076,32.37,33.42,11.78,0,111.7,12.93,33.24,53.2
"2016-06-22 00:30:30",1743832,3.873,90.2,6.569,0.219,28.55,112.9045,32.37,33.41,11.72,0,111.7,12.93,33.23,52.2
"2016-06-22 00:31:00",1743833,4.294,91.1,5.969,0.287,28.39,112.8947,32.34,33.4,11.75,0,111.7,12.93,33.21,53.1
"2016-06-22 00:31:30",1743834,4.6,97.8,4.566,0.445,28.05,112.886,32.32,33.38,12.4,0,111.7,12.93,33.18,59.8
"2016-06-22 00:32:00",1743835,3.307,103.9,6.116,0.534,28.02,112.8818,32.31,33.38,12.57,0,111.7,12.93,33.17,65.9
"2016-06-22 00:32:30",1743836,3.234,92.8,4.022,0.341,28.1,112.8748,32.29,33.38,12.63,0,111.7,12.93,33.15,54.8
"2016-06-22 00:33:00",1743837,5.446,80.3,4.534,1.53,28.09,112.8739,32.29,33.37,12.62,0,111.7,12.93,33.15,42.3
"2016-06-22 00:33:30",1743838,6.915,83.1,1.211,0.267,28.35,112.8712,32.28,33.35,11.99,0,111.7,12.93,33.14,45.1
"2016-06-22 00:34:00",1743839,5.834,87.8,3.653,0.38,28.81,112.8572,32.24,33.34,11.76,0,111.7,12.93,33.11,49.8
"2016-06-22 00:34:30",1743840,6.274,90.7,2.55,0.327,28.64,112.8479,32.22,33.32,11.72,0,111.7,12.93,33.08,52.7
"2016-06-22 00:35:00",1743841,6.552,88.1,1.853,0.179,28.6,112.8403,32.2,33.3,11.76,0,111.7,12.93,33.06,50.1
"2016-06-22 00:35:30",1743842,6.981,84.8,2.221,0.272,28.52,112.8389,32.2,33.29,11.8,0,111.7,12.94,33.06,46.8
"2016-06-22 00:36:00",1743843,6.603,89.6,4.465,0.54,28.1,112.8235,32.16,33.27,12.18,0,111.7,12.94,33.02,51.6
"2016-06-22 00:36:30",1743844,5.189,106.1,5.285,0.346,27.85,112.813,32.13,33.24,12.86,0,111.7,12.94,32.99,68.1
"2016-06-22 00:37:00",1743845,5.971,100.4,10.39,0.675,28.4,112.8062,32.11,33.24,12.67,0,111.7,12.94,32.98,62.4
"2016-06-22 00:37:30",1743846,6.098,96.9,3.792,0.55,28.68,112.7974,32.09,33.21,12.03,0,111.7,12.94,32.95,58.9
"2016-06-22 00:38:00",1743847,6.084,92.7,3.704,0.963,28.58,112.7815,32.05,33.18,11.87,0,111.7,12.94,32.91,54.7
"2016-06-22 00:38:30",1743848,6.522,92,5.195,0.615,27.98,112.7782,32.04,33.17,12.83,0,111.7,12.94,32.90,54.0
"2016-06-22 00:39:00",1743849,5.41,100.1,6.258,0.784,27.89,112.7635,32,33.16,12.85,0,111.7,12.94,32.87,62.1
"2016-06-22 00:39:30",1743850,4.867,100.6,3.565,0.604,27.84,112.7479,31.96,33.11,13.25,0,111.7,12.94,32.83,62.6
"2016-06-22 00:40:00",1743851,5.737,95.7,9.47,0.601,27.83,112.7479,31.96,33.08,13.1,0,111.7,12.94,32.83,57.7
"2016-06-22 00:40:30",1743852,6.217,105.4,6.13,0.293,27.81,112.727,31.91,33.06,13.51,0,111.7,12.94,32.77,67.4
"2016-06-22 00:41:00",1743853,6.771,115.6,8.73,0.834,27.89,112.723,31.9,33.02,13.51,0,111.7,12.94,32.76,77.6
"2016-06-22 00:41:30",1743854,4.922,133.3,5.656,0.507,27.88,112.703,31.85,33,13.31,0,111.7,12.94,32.71,95.3
"2016-06-22 00:42:00",1743855,6.247,126.1,12.75,0.647,28.02,112.6937,31.82,32.97,13.14,0,111.7,12.94,32.69,88.1
"2016-06-22 00:42:30",1743856,5.526,127.8,7.305,0.458,28.16,112.6905,31.81,32.94,13.08,0,111.7,12.94,32.68,89.8
"2016-06-22 00:43:00",1743857,5.213,138.6,4.796,0.357,28.13,112.6717,31.77,32.91,12.99,0,111.7,12.94,32.63,100.6
"2016-06-22 00:43:30",1743858,5.052,139.1,5.359,0.742,27.98,112.6633,31.74,32.87,13.17,0,111.7,12.94,32.61,101.1
"2016-06-22 00:44:00",1743859,5.439,119,6.384,0.49,27.95,112.6618,31.74,32.84,13.45,0,111.7,12.94,32.60,81.0
"2016-06-22 00:44:30",1743860,4.63,128.7,5.778,0.256,27.92,112.6502,31.71,32.82,13.58,0,111.7,12.94,32.57,90.7
"2016-06-22 00:45:00",1743861,5.334,129.3,8.64,0.569,27.94,112.6393,31.68,32.79,13.71,0,111.7,12.94,32.55,91.3
"2016-06-22 00:45:30",1743862,7.669,128.3,4.221,1.098,28.23,112.6326,31.67,32.75,13.81,0,111.7,12.94,32.53,90.3
"2016-06-22 00:46:00",1743863,8.04,133.6,3.757,0.58,28.18,112.63,31.66,32.74,13.8,0,111.7,12.94,32.52,95.6
"2016-06-22 00:46:30",1743864,7.273,132.8,3.501,0.491,28.16,112.6095,31.61,32.72,13.95,0,111.7,12.94,32.47,94.8
"2016-06-22 00:47:00",1743865,7.29,133.5,3.157,0.494,28.14,112.6014,31.59,32.7,14.21,0,111.7,12.94,32.45,95.5
"2016-06-22 00:47:30",1743866,8.05,145.5,1.412,0.379,28.26,112.5976,31.58,32.67,15.04,0,111.7,12.94,32.44,107.5
"2016-06-22 00:48:00",1743867,8.48,151.1,5.279,0.778,28.46,112.5791,31.53,32.67,15.2,0,111.7,12.94,32.39,113.1
"2016-06-22 00:48:30",1743868,7.58,158.8,4.655,0.353,28.41,112.5681,31.5,32.63,16.04,0,111.7,12.94,32.36,120.8
"2016-06-22 00:49:00",1743869,8.03,165.6,2.35,0.278,28.46,112.5586,31.48,32.6,16.77,0,111.7,12.94,32.34,127.6
"2016-06-22 00:49:30",1743870,7.996,170.3,2.273,0.259,28.76,112.5348,31.41,32.56,15.18,0,111.7,12.94,32.28,132.3
"2016-06-22 00:50:00",1743871,7.916,168.9,1.954,0.614,28.92,112.5186,31.37,32.54,14.19,0,111.7,12.94,32.23,130.9
"2016-06-22 00:50:30",1743872,7.463,160.4,1.975,0.402,28.97,112.5001,31.32,32.49,14.04,0,111.7,12.94,32.19,122.4
"2016-06-22 00:51:00",1743873,7.288,158.8,5.404,0.692,28.94,112.492,31.3,32.44,14.07,0,111.7,12.94,32.16,120.8
"2016-06-22 00:51:30",1743874,7.092,156.1,3.586,0.56,28.85,112.4763,31.26,32.41,14.27,0,111.7,12.94,32.12,118.1
"2016-06-22 00:52:00",1743875,6.431,156.9,2.606,0.331,28.81,112.4709,31.25,32.39,14.78,0,111.7,12.94,32.11,118.9
"2016-06-22 00:52:30",1743876,7.048,157.3,1.843,0.496,28.86,112.472,31.25,32.35,16.94,0,111.7,12.94,32.11,119.3
"2016-06-22 00:53:00",1743877,7.385,157.3,1.214,0.134,28.8,112.4601,31.22,32.33,17.23,0,111.7,12.94,32.08,119.3
"2016-06-22 00:53:30",1743878,7.08,155.8,1.168,0.254,28.97,112.4496,31.19,32.32,16.87,0,111.7,12.94,32.06,117.8
"2016-06-22 00:54:00",1743879,6.689,159.5,2.157,0.187,28.87,112.4431,31.18,32.29,17.63,0,111.7,12.94,32.04,121.5
"2016-06-22 00:54:30",1743880,6.694,165.8,3.392,0.367,28.99,112.4412,31.17,32.27,17.76,0,111.7,12.94,32.03,127.8
"2016-06-22 00:55:00",1743881,5.663,167.4,3.903,0.749,29.1,112.4369,31.16,32.25,17,0,111.7,12.94,32.02,129.4
"2016-06-22 00:55:30",1743882,5.37,164.1,4.036,0.461,29.11,112.4193,31.12,32.24,15.74,0,111.7,12.94,31.98,126.1
"2016-06-22 00:56:00",1743883,5.581,161.6,2.946,0.44,29.01,112.4159,31.11,32.21,15.99,0,111.7,12.94,31.97,123.6
"2016-06-22 00:56:30",1743884,5.757,159.8,5.598,0.299,28.97,112.41,31.09,32.19,16.14,0,111.7,12.93,31.95,121.8
"2016-06-22 00:57:00",1743885,5.366,178.3,8.98,0.251,29.09,112.4087,31.09,32.18,15.51,0,111.7,12.93,31.95,140.3
"2016-06-22 00:57:30",1743886,6.025,178.9,3.404,0.444,29.13,112.4075,31.09,32.16,14.78,0,111.7,12.93,31.95,140.9
"2016-06-22 00:58:00",1743887,6.536,167.6,2.445,0.727,28.82,112.4078,31.09,32.15,16.87,0,111.7,12.93,31.95,129.6
"2016-06-22 00:58:30",1743888,7.061,170.3,3.281,0.256,28.77,112.4082,31.09,32.15,19.37,0,111.7,12.93,31.95,132.3
"2016-06-22 00:59:00",1743889,6.505,176.8,4.145,0.285,28.91,112.411,31.1,32.15,18.47,0,111.7,12.93,31.96,138.8
"2016-06-22 00:59:30",1743890,6.712,174.6,4.395,0.268,28.97,112.4086,31.09,32.13,17.8,0,111.6,12.93,31.95,136.6
"2016-06-22 01:00:00",1743891,7.277,171.4,2.76,0.36,28.98,112.3975,31.06,32.11,17.54,0,111.7,12.93,31.92,133.4
"2016-06-22 01:00:30",1743892,6.948,167.2,2.73,0.348,28.99,112.3934,31.05,32.1,17.95,0,111.7,12.93,31.91,129.2
"2016-06-22 01:01:00",1743893,6.996,168.6,3.231,0.248,28.98,112.3893,31.04,32.1,17.49,0,111.6,12.94,31.90,130.6
"2016-06-22 01:01:30",1743894,7.077,165.8,1.904,0.156,29.03,112.3941,31.05,32.09,17.42,0,111.6,12.94,31.91,127.8
"2016-06-22 01:02:00",1743895,6.906,165.2,3.12,0.505,29.04,112.3925,31.05,32.06,16.92,0,111.6,12.94,31.91,127.2
"2016-06-22 01:02:30",1743896,6.769,171.7,5.473,0.436,29.1,112.3791,31.01,32.05,15.97,0,111.6,12.94,31.87,133.7
"2016-06-22 01:03:00",1743897,5.885,177.3,4.642,0.381,29.03,112.3767,31.01,32.02,15.96,0,111.6,12.94,31.87,139.3
"2016-06-22 01:03:30",1743898,6.926,177.6,3.203,0.212,29,112.3749,31,32.02,16.53,0,111.6,12.94,31.86,139.6
"2016-06-22 01:04:00",1743899,6.305,175.8,1.699,0.262,29.05,112.3725,31,32.01,16.16,0,111.6,12.95,31.86,137.8
"2016-06-22 01:04:30",1743900,5.615,182.7,2.947,0.418,28.96,112.3686,30.99,32.01,16.52,0,111.6,12.95,31.85,144.7
"2016-06-22 01:05:00",1743901,5.02,176.9,5.91,0.43,29,112.3686,30.99,32,16.3,0,111.6,12.95,31.85,138.9
"2016-06-22 01:05:30",1743902,6.113,179.8,7.222,0.583,28.98,112.3689,30.99,31.98,16.46,0,111.6,12.95,31.85,141.8
"2016-06-22 01:06:00",1743903,6.222,179.4,5.484,0.347,28.97,112.3686,30.99,31.99,16.53,0,111.6,12.95,31.85,141.4
"2016-06-22 01:06:30",1743904,6.125,176.5,4.755,0.303,28.91,112.3711,30.99,31.98,16.79,0,111.6,12.95,31.85,138.5
"2016-06-22 01:07:00",1743905,6.574,177.5,3.791,0.28,28.8,112.3708,30.99,31.98,16.86,0,111.6,12.95,31.85,139.5
"2016-06-22 01:07:30",1743906,7.15,181.5,2.929,0.542,28.74,112.3737,31,31.98,17.54,0,111.6,12.95,31.86,143.5
"2016-06-22 01:08:00",1743907,6.739,177.3,5.873,0.419,28.75,112.3728,31,31.97,18.03,0,111.6,12.95,31.86,139.3
"2016-06-22 01:08:30",1743908,6.252,178.3,3.851,0.34,28.76,112.3753,31,31.97,16.94,0,111.6,12.95,31.86,140.3
"2016-06-22 01:09:00",1743909,5.426,175,6.003,0.359,28.75,112.3772,31.01,31.98,16.74,0,111.6,12.95,31.87,137.0
"2016-06-22 01:09:30",1743910,5.642,182.6,4.995,0.442,28.71,112.3761,31.01,31.98,16.82,0,111.6,12.95,31.87,144.6
"2016-06-22 01:10:00",1743911,5.785,184,6.24,0.262,28.57,112.3767,31.01,31.96,17.12,0,111.6,12.95,31.87,146.0
"2016-06-22 01:10:30",1743912,5.972,187.5,7.268,0.357,28.6,112.3772,31.01,31.96,17.23,0,111.6,12.95,31.87,149.5
"2016-06-22 01:11:00",1743913,6.525,184.2,3.032,0.473,28.65,112.3772,31.01,31.96,17.33,0,111.6,12.95,31.87,146.2
"2016-06-22 01:11:30",1743914,5.612,187.9,6.422,0.368,28.71,112.3778,31.01,31.98,17.06,0,111.6,12.95,31.87,149.9
"2016-06-22 01:12:00",1743915,5.944,185,2.564,0.579,28.77,112.3781,31.01,31.97,16.94,0,111.6,12.95,31.87,147.0
"2016-06-22 01:12:30",1743916,6.114,187.6,4.223,0.64,28.8,112.3781,31.01,31.98,17.06,0,111.6,12.95,31.87,149.6
"2016-06-22 01:13:00",1743917,6.024,171.6,6.401,0.415,28.68,112.3781,31.01,31.98,17.73,0,111.6,12.95,31.87,133.6
"2016-06-22 01:13:30",1743918,6.578,179.9,5.502,0.372,28.74,112.3781,31.01,31.98,18.5,0,111.6,12.95,31.87,141.9
"2016-06-22 01:14:00",1743919,6.479,177.2,4.218,0.399,28.71,112.3775,31.01,31.97,18.18,0,111.6,12.95,31.87,139.2
"2016-06-22 01:14:30",1743920,6.641,180.6,4.53,0.674,28.6,112.3747,31,31.98,18.69,0,111.6,12.95,31.86,142.6
"2016-06-22 01:15:00",1743921,8.04,176.9,5.178,0.461,28.29,112.3677,30.98,31.98,19.27,0,111.6,12.95,31.84,138.9
"2016-06-22 01:15:30",1743922,9.86,170.7,3.573,0.543,28.12,112.3528,30.95,31.97,18.89,0,111.6,12.95,31.81,132.7
"2016-06-22 01:16:00",1743923,9.7,171.9,2.016,0.433,28.01,112.343,30.92,31.97,19.69,0,111.6,12.95,31.78,133.9
"2016-06-22 01:16:30",1743924,9.59,167,2.428,0.433,28.15,112.317,30.85,31.94,18.97,0,111.6,12.95,31.71,129.0
"2016-06-22 01:17:00",1743925,9.36,167,2.255,0.228,28.3,112.2909,30.79,31.92,19.1,0,111.6,12.95,31.65,129.0
"2016-06-22 01:17:30",1743926,9.45,166,1.966,0.317,28.3,112.2684,30.73,31.88,18.68,0,111.6,12.95,31.59,128.0
"2016-06-22 01:18:00",1743927,9.14,167.6,2.905,0.269,28.47,112.2407,30.66,31.82,18.75,0,111.6,12.95,31.52,129.6
"2016-06-22 01:18:30",1743928,9.07,167.5,1.987,0.326,28.68,112.2133,30.59,31.79,19.51,0,111.6,12.95,31.44,129.5
"2016-06-22 01:19:00",1743929,9.38,170.5,2.506,0.437,28.71,112.2004,30.55,31.72,19.15,0,111.6,12.95,31.41,132.5
"2016-06-22 01:19:30",1743930,8.89,167.3,4.745,0.508,28.69,112.1812,30.5,31.68,19.05,0,111.6,12.95,31.36,129.3
"2016-06-22 01:20:00",1743931,9.68,169.3,4.074,0.655,28.76,112.1798,30.5,31.64,18.94,0,111.6,12.96,31.36,131.3
"2016-06-22 01:20:30",1743932,8.11,172.9,2.433,0.298,28.86,112.1685,30.47,31.61,19.02,0,111.6,12.96,31.33,134.9
"2016-06-22 01:21:00",1743933,7.579,174.1,1.63,0.289,28.62,112.1615,30.45,31.6,19.43,0,111.6,12.96,31.31,136.1
"2016-06-22 01:21:30",1743934,7.453,176.7,3.604,0.262,28.66,112.1546,30.44,31.57,19.44,0,111.6,12.96,31.29,138.7
"2016-06-22 01:22:00",1743935,7.787,190.3,11.13,0.445,28.54,112.1596,30.45,31.55,19.27,0,111.6,12.96,31.31,152.3
"2016-06-22 01:22:30",1743936,8.22,184.2,5.753,0.432,28.64,112.163,30.46,31.52,19.1,0,111.6,12.96,31.31,146.2
"2016-06-22 01:23:00",1743937,7.718,177.9,3.574,0.289,28.71,112.1611,30.45,31.52,19.04,0,111.6,12.96,31.31,139.9
"2016-06-22 01:23:30",1743938,6.406,183.6,6.226,0.527,28.63,112.1608,30.45,31.5,19.28,0,111.6,12.96,31.31,145.6
"2016-06-22 01:24:00",1743939,5.523,187.7,9.77,0.25,28.55,112.1652,30.46,31.48,19.55,0,111.6,12.96,31.32,149.7
"2016-06-22 01:24:30",1743940,5.924,177,3.522,0.488,28.42,112.1656,30.46,31.49,18.96,0,111.6,12.96,31.32,139.0
"2016-06-22 01:25:00",1743941,7.137,164,5.323,0.845,28.41,112.1697,30.47,31.46,18.62,0,111.6,12.96,31.33,126.0
"2016-06-22 01:25:30",1743942,8.05,159.2,1.673,0.229,28.25,112.1688,30.47,31.46,17.99,0,111.6,12.96,31.33,121.2
"2016-06-22 01:26:00",1743943,8.06,169.5,3.351,0.246,28.31,112.1605,30.45,31.45,17.99,0,111.6,12.96,31.31,131.5
"2016-06-22 01:26:30",1743944,7.964,169.5,2.783,0.267,28.44,112.1501,30.42,31.44,18.05,0,111.6,12.96,31.28,131.5
"2016-06-22 01:27:00",1743945,7.832,169.4,4.176,0.45,28.51,112.1443,30.41,31.42,18.11,0,111.6,12.96,31.27,131.4
"2016-06-22 01:27:30",1743946,6.887,167.5,3.156,0.417,28.59,112.1378,30.39,31.43,17.99,0,111.6,12.96,31.25,129.5
"2016-06-22 01:28:00",1743947,7.346,163.8,4.33,0.386,28.55,112.1373,30.39,31.4,17.73,0,111.6,12.96,31.25,125.8
"2016-06-22 01:28:30",1743948,8.55,162.7,1.752,0.516,28.68,112.1317,30.38,31.39,17.46,0,111.6,12.96,31.23,124.7
"2016-06-22 01:29:00",1743949,8.82,163.4,3.504,0.304,28.88,112.1153,30.33,31.36,17.22,0,111.6,12.96,31.19,125.4
"2016-06-22 01:29:30",1743950,10.16,166.8,2.869,0.577,29.57,112.1082,30.32,31.36,17.25,0,111.6,12.96,31.17,128.8
"2016-06-22 01:30:00",1743951,10.36,162,1.877,0.299,29.08,112.1083,30.32,31.33,16.54,0,111.6,12.96,31.17,124.0
"2016-06-22 01:30:30",1743952,10.19,161.2,1.936,0.384,29.04,112.1056,30.31,31.32,16.14,0,111.6,12.96,31.17,123.2
"2016-06-22 01:31:00",1743953,10.63,165.8,1.892,0.173,28.95,112.089,30.27,31.28,15.98,0,111.6,12.95,31.12,127.8
"2016-06-22 01:31:30",1743954,9.73,166.5,1.948,0.287,29.19,112.0794,30.24,31.28,16.05,0,111.6,12.95,31.10,128.5
"2016-06-22 01:32:00",1743955,10.1,166.8,2.253,0.384,28.81,112.0791,30.24,31.25,15.99,0,111.6,12.95,31.10,128.8
"2016-06-22 01:32:30",1743956,10.62,167.1,1.235,0.245,28.83,112.0536,30.18,31.22,16,0,111.6,12.95,31.03,129.1
"2016-06-22 01:33:00",1743957,9.88,164.5,2.187,0.377,28.41,112.0435,30.15,31.17,16.23,0,111.6,12.95,31.01,126.5
"2016-06-22 01:33:30",1743958,9.74,168.5,3.874,0.554,26.22,112.0306,30.12,31.12,16.39,0,111.6,12.95,30.97,130.5
"2016-06-22 01:34:00",1743959,9.13,172.6,5.321,0.463,26.04,112.0278,30.11,31.11,16.31,0,111.6,12.95,30.97,134.6
"2016-06-22 01:34:30",1743960,9.05,162.6,2.637,0.39,28.84,112.0261,30.1,31.09,15.76,0,111.6,12.95,30.96,124.6
"2016-06-22 01:35:00",1743961,8.52,168.7,2.193,0.594,29.04,112.025,30.1,31.08,16.3,0,111.6,12.95,30.96,130.7
"2016-06-22 01:35:30",1743962,8.5,163.1,2.732,0.425,29.02,112.025,30.1,31.07,16.41,0,111.6,12.95,30.96,125.1
"2016-06-22 01:36:00",1743963,9.4,171.4,3.809,0.52,28.75,112.0261,30.1,31.09,16.19,0,111.6,12.96,30.96,133.4
"2016-06-22 01:36:30",1743964,8.27,183.1,5.106,0.671,29.01,112.0275,30.11,31.09,17.33,0,111.6,12.96,30.97,145.1
"2016-06-22 01:37:00",1743965,6.023,183.3,6.058,0.953,28.93,112.0295,30.11,31.08,18.15,0,111.5,12.96,30.97,145.3
"2016-06-22 01:37:30",1743966,7.183,175.4,4.871,0.836,29.01,112.0298,30.11,31.1,17.63,0,111.6,12.96,30.97,137.4
"2016-06-22 01:38:00",1743967,7.603,177.9,3.765,0.391,28.9,112.0372,30.13,31.08,17.04,0,111.5,12.96,30.99,139.9
"2016-06-22 01:38:30",1743968,6.418,176.4,6.933,0.383,28.87,112.0427,30.15,31.1,16.6,0,111.5,12.96,31.00,138.4
"2016-06-22 01:39:00",1743969,6.375,172.9,3.409,0.546,28.69,112.045,30.15,31.11,16.06,0,111.5,12.96,31.01,134.9
"2016-06-22 01:39:30",1743970,5.681,170.7,3.992,0.336,28.65,112.0443,30.15,31.1,16.12,0,111.5,12.96,31.01,132.7
"2016-06-22 01:40:00",1743971,6.668,168.9,8.67,0.401,28.46,112.0491,30.16,31.11,15.99,0,111.5,12.96,31.02,130.9
"2016-06-22 01:40:30",1743972,7.292,173.1,7.609,0.338,28.52,112.0483,30.16,31.11,16.11,0,111.5,12.96,31.02,135.1
"2016-06-22 01:41:00",1743973,7.941,171,3.94,0.38,28.4,112.0511,30.17,31.11,16.08,0,111.5,12.96,31.03,133.0
"2016-06-22 01:41:30",1743974,6.762,151.1,8.37,0.73,28.13,112.0483,30.16,31.13,15.94,0,111.5,12.97,31.02,113.1
"2016-06-22 01:42:00",1743975,4.88,155.9,5.359,0.324,28.06,112.0479,30.16,31.13,15.91,0,111.5,12.97,31.02,117.9
"2016-06-22 01:42:30",1743976,5.526,164.4,5.677,0.877,28.22,112.0454,30.15,31.13,16.11,0,111.5,12.97,31.01,126.4
"2016-06-22 01:43:00",1743977,8.66,165.4,3.337,0.559,28.17,112.0408,30.14,31.12,16.62,0,111.5,12.97,31.00,127.4
"2016-06-22 01:43:30",1743978,8.43,164.3,1.34,0.384,28.25,112.0314,30.12,31.12,17.01,0,111.5,12.97,30.98,126.3
"2016-06-22 01:44:00",1743979,8.51,170.3,3.986,1.024,28.43,112.0325,30.12,31.11,16.91,0,111.5,12.96,30.98,132.3
"2016-06-22 01:44:30",1743980,9.58,168.4,2.733,0.46,28.66,112.0379,30.14,31.1,16.56,0,111.5,12.97,30.99,130.4
"2016-06-22 01:45:00",1743981,9.38,175.2,3.113,0.327,28.68,112.0273,30.11,31.1,16.88,0,111.5,12.97,30.96,137.2
"2016-06-22 01:45:30",1743982,9.65,163.3,9.02,0.412,28.63,112.0168,30.08,31.07,17.58,0,111.5,12.97,30.94,125.3
"2016-06-22 01:46:00",1743983,9.91,159.1,2.02,0.33,28.37,112.0121,30.07,31.07,18.43,0,111.5,12.97,30.93,121.1
"2016-06-22 01:46:30",1743984,7.85,157.7,3.614,0.852,27.8,112.0073,30.06,31.06,18.54,0,111.5,12.97,30.91,119.7
"2016-06-22 01:47:00",1743985,6.29,151.4,9.46,0.414,27.33,111.9851,30,31.04,18.13,0,111.5,12.97,30.86,113.4